Regional Weather Roundup
Issued by NWS Sterling, VA

Current Version | Previous Version | Text Only | Print | Product List | Glossary On
Versions: 1 2 3 4 5 6 7 8 9 10 11 12 13 14 15 16 17 18 19 20 21 22 23 24 25 26 27 28 29 30 31 32 33 34 35 36 37 38 39 40 41 42 43 44 45 46 47 48 49
000 ASUS41 KLWX 021712 RWRLWX REGIONAL WEATHER ROUNDUP NATIONAL WEATHER SERVICE BALTIMORE MD/WASHINGTON DC 1200 PM EST TUE MAR 02 2021 Note: "FAIR" indicates few or no clouds below 12,000 feet with no significant weather and/or obstructions to visibility. TC=TEMPERATURE CELSIUS * =Non NWS site. Station does not report precipitation (e.g. rain, snow, etc.), thunder, or fog. DCZ001-MDZ009-015-VAZ040>042-051-053>054-021800- WASHINGTON METRO CITY SKY/WX TMP DP RH WIND PRES REMARKS WASHINGTON NAT MOSUNNY 39 12 33 N14 30.32F WCI 31 DULLES MOSUNNY 38 12 34 NW14G21 30.31F WCI 30 ANDREWS AFB SUNNY 37 11 33 NW13 30.28F WCI 29 FT BELVOIR SUNNY 39 9 28 NW10G18 30.31S WCI 33 QUANTICO SUNNY 42 12 29 N17G24 30.33S WCI 34 COLLEGE PARK* SUNNY 36 2 23 NW13 30.30F WCI 28 LEESBURG* SUNNY 36 14 41 N10G17 30.31F WCI 28 MANASSAS* SUNNY 39 14 36 N15 30.31F WCI 31 GAITHERSBURG* SUNNY 36 11 35 NW14G22 30.28F WCI 27 $$ MDZ006>007-011-014-021800- BALTIMORE METRO CITY SKY/WX TMP DP RH WIND PRES REMARKS BWI AIRPORT MOSUNNY 38 8 29 W8G20 30.29F WCI 32 MARTIN STATE SUNNY 37 14 38 W14 30.32F WCI 29 ANNAPOLIS SUNNY 36 13 38 NW9 30.30F WCI 29 ABERDEEN* SUNNY 34 11 38 NW12 30.31F WCI 26 FORT MEADE* SUNNY 37 12 35 W12G17 30.32F WCI 30 $$ MDZ012-015-019>023-021800- MARYLAND EASTERN SHORE CITY SKY/WX TMP DP RH WIND PRES REMARKS OCEAN CITY SUNNY 39 16 39 N15 30.27F WCI 31 SALISBURY SUNNY 37 16 42 NW14G24 30.28S WCI 28 BAY BRIDGE AP* SUNNY 37 14 38 N9 30.31F WCI 31 EASTON* SUNNY 37 14 38 N13G18 30.34F WCI 29 $$ MDZ017>025-021800- SOUTHERN MARYLAND CITY SKY/WX TMP DP RH WIND PRES REMARKS PATUXENT RIVER SUNNY 41 15 35 NW15G24 30.29F WCI 33 ST INIGOES SUNNY 43 15 32 NW9G18 30.29F LEONARDTOWN* SUNNY 36 10 35 NW7 30.30F WCI 30 $$ MDZ003>005-021800- NORTH CENTRAL MARYLAND CITY SKY/WX TMP DP RH WIND PRES REMARKS FREDERICK* SUNNY 36 9 32 W7G17 30.32F WCI 30 HAGERSTOWN APT SUNNY 35 6 29 NW13 30.28F WCI 26 WESTMINSTER* SUNNY 34 10 37 W7G18 30.26F WCI 28 $$ MDZ501>502-021800- WESTERN MARYLAND CITY SKY/WX TMP DP RH WIND PRES REMARKS OAKLAND* SUNNY 25 5 42 W6 30.18R WCI 18 CUMBERLAND* SUNNY 36 9 32 N3 30.33F $$ VAZ025>031-021800- SHENANDOAH VALLEY CITY SKY/WX TMP DP RH WIND PRES REMARKS WINCHESTER* SUNNY 34 12 40 NW8 30.28S WCI 27 FRONT ROYAL* SUNNY 37 12 35 N8 30.28S WCI 31 LURAY* SUNNY 41 10 28 NW7 30.28S NEW MARKET* SUNNY 41 11 29 NE7 30.27F STAUNTON* SUNNY 40 15 35 N6 30.29R WAYNESBORO* SUNNY 39 13 34 NE6 30.26R WCI 35 $$ WVZ021-048>050-054>055-021800- EASTERN WEST VIRGINIA PANHANDLE CITY SKY/WX TMP DP RH WIND PRES REMARKS MARTINSBURG SUNNY 36 9 32 NW10 30.29F WCI 28 PETERSBURG* SUNNY 40 9 28 CALM 30.29S $$ VAZ036>039-050-021800- CENTRAL FOOTHILLS CITY SKY/WX TMP DP RH WIND PRES REMARKS CHARLOTTESVILL SUNNY 45 13 27 NW8 30.28R CULPEPER* SUNNY 43 11 27 N7 30.32R ORANGE* SUNNY 41 14 33 N7 30.30R GORDONSVILLE* SUNNY 43 11 27 N5 30.29R WARRENTON* SUNNY 42 10 27 N5 30.30S $$ VAZ055>057-021800- NORTH AND CENTRAL PIEDMONT CITY SKY/WX TMP DP RH WIND PRES REMARKS FREDERICKSBRG* SUNNY 42 11 28 N7G17 30.32R STAFFORD* SUNNY 42 3 19 NW9G18 30.35R $$ NCZ024-NYZ072-PAZ021-071-VAZ022-071-021800- OTHER REGIONAL OBSERVATIONS CITY SKY/WX TMP DP RH WIND PRES REMARKS NEW YORK CITY SUNNY 28 -1 28 NW15G25 30.19F WCI 16 PHILADELPHIA MOSUNNY 32 6 33 NW15G25 30.28S WCI 22 PITTSBURGH SUNNY 28 9 44 NE5 30.27F WCI 23 ROANOKE PTSUNNY 42 14 32 VRB3 30.29R RICHMOND MOSUNNY 44 17 33 N9 30.31S RALEIGH PTSUNNY 48 24 39 E5 30.29R $$ ANZ530>537-021800- MARINE OBSERVATIONS STATION/POSITION TIME TEMP WIND PRES AIR SEA DIR/SP/G (UTC) (F) (DEG/KT/KT) (MB) THOMAS PT LIGHT NOT AVBL $$

USA.gov is the U.S. government's official web portal to all federal, state and local government web resources and services.